Weather History for KMNE - August, 2014

Change the Weather History Date:

Thursday, August 14, 2014

  Actual Average (KBAD) Record (KBAD)
Temperature  
Mean Temperature 76 °F -  
Max Temperature 87 °F 89 °F 105 °F (2011)
Min Temperature 64 °F 70 °F 64 °F (2004)
Cooling Degree Days 10    
Growing Degree Days 26 (Base 50)    
Moisture  
Dew Point 63 °F    
Average Humidity 68    
Maximum Humidity 94    
Minimum Humidity 40    
Precipitation  
Precipitation 0.00 in - - ()
Sea Level Pressure  
Sea Level Pressure 30.05 in    
Wind  
Wind Speed 1 mph (East)    
Max Wind Speed 8 mph    
Max Gust Speed -    
Visibility 10 miles    
Events      
Averages and records for this station are not official NWS values.
T = Trace of Precipitation, MM = Missing Value Source: NWS Daily Summary

Daily Weather History Graph

Daily Weather History Graph

Search for Another Location

Airport or City:

Trip Planner

Search our weather history database for the weather conditions in past years. The results will help you decide how hot, cold, wet, or windy it might be!

Date:

Astronomy

Aug. 14, 2014 Rise Set
Actual Time 6:36 AM CDT 7:59 PM CDT
Civil Twilight 6:10 AM CDT 8:25 PM CDT
Nautical Twilight 5:38 AM CDT 8:56 PM CDT
Astronomical Twilight 5:06 AM CDT 9:28 PM CDT
Moon 10:41 PM CDT (8/14) 10:55 AM CDT (8/14)
Length of Visible Light 14h 14m
Length of Day
13h 22m
Waning Gibbous, 79% of the Moon is Illuminated
Aug 14
Waning Gibbous
Aug 17
Last Quarter
Aug 25
New
Sep 2
First Quarter
Sep 8
Full

Hourly Weather History & Observations

Time (CDT) Temp. Heat Index Dew Point Humidity Pressure Visibility Wind Dir Wind Speed Gust Speed Precip Events Conditions
12:15 AM 69.8 °F - 66.2 °F 88% 30.06 in 10.0 mi Calm Calm - N/A   Unknown
12:35 AM 69.8 °F - 66.2 °F 88% 30.06 in 10.0 mi Calm Calm - N/A   Unknown
12:55 AM 68.0 °F - 66.2 °F 94% 30.06 in 10.0 mi Calm Calm - N/A   Unknown
1:15 AM 68.0 °F - 64.4 °F 88% 30.06 in 10.0 mi Calm Calm - N/A   Unknown
1:35 AM 68.0 °F - 64.4 °F 88% 30.06 in 10.0 mi Calm Calm - N/A   Unknown
1:55 AM 68.0 °F - 64.4 °F 88% 30.05 in 10.0 mi Calm Calm - N/A   Unknown
2:15 AM 69.8 °F - 64.4 °F 83% 30.05 in 10.0 mi Calm Calm - N/A   Unknown
2:35 AM 69.8 °F - 64.4 °F 83% 30.05 in 10.0 mi Calm Calm - N/A   Unknown
2:55 AM 69.8 °F - 64.4 °F 83% 30.05 in 10.0 mi ESE 3.5 mph - N/A   Unknown
3:15 AM 69.8 °F - 64.4 °F 83% 30.04 in 10.0 mi Calm Calm - N/A   Unknown
3:35 AM 69.8 °F - 62.6 °F 78% 30.05 in 10.0 mi Calm Calm - N/A   Unknown
3:55 AM 69.8 °F - 62.6 °F 78% 30.05 in 10.0 mi Calm Calm - N/A   Unknown
4:15 AM 69.8 °F - 62.6 °F 78% 30.05 in 10.0 mi Calm Calm - N/A   Unknown
4:35 AM 68.0 °F - 62.6 °F 83% 30.06 in 10.0 mi Calm Calm - N/A   Unknown
4:55 AM 66.2 °F - 62.6 °F 88% 30.06 in 10.0 mi Calm Calm - N/A   Unknown
5:15 AM 66.2 °F - 62.6 °F 88% 30.06 in 10.0 mi Calm Calm - N/A   Unknown
5:35 AM 66.2 °F - 62.6 °F 88% 30.06 in 10.0 mi Calm Calm - N/A   Unknown
5:55 AM 66.2 °F - 62.6 °F 88% 30.07 in 10.0 mi Calm Calm - N/A   Unknown
6:15 AM 66.2 °F - 62.6 °F 88% 30.07 in 10.0 mi Calm Calm - N/A   Unknown
6:35 AM 64.4 °F - 62.6 °F 94% 30.08 in 10.0 mi Calm Calm - N/A   Unknown
6:55 AM 64.4 °F - 62.6 °F 94% 30.08 in 10.0 mi Calm Calm - N/A   Unknown
7:14 AM 66.2 °F - 62.6 °F 88% 30.09 in 10.0 mi Calm Calm - N/A   Unknown
7:34 AM 66.2 °F - 62.6 °F 88% 30.09 in 10.0 mi Calm Calm - N/A   Unknown
7:54 AM 69.8 °F - 64.4 °F 83% 30.09 in 10.0 mi Calm Calm - N/A   Unknown
8:15 AM 73.4 °F - 64.4 °F 73% 30.10 in 10.0 mi Calm Calm - N/A   Unknown
8:35 AM 73.4 °F - 64.4 °F 73% 30.10 in 10.0 mi East 3.5 mph - N/A   Unknown
8:54 AM 75.2 °F - 64.4 °F 69% 30.10 in 10.0 mi East 3.5 mph - N/A   Unknown
9:14 AM 78.8 °F - 64.4 °F 61% 30.10 in 10.0 mi Calm Calm - N/A   Unknown
9:34 AM 78.8 °F - 64.4 °F 61% 30.10 in 10.0 mi ESE 5.8 mph - N/A   Unknown
9:56 AM 80.6 °F 81.8 °F 62.6 °F 54% 30.10 in 10.0 mi Calm Calm - N/A   Unknown
10:14 AM 80.6 °F 81.8 °F 62.6 °F 54% 30.11 in 10.0 mi East 4.6 mph - N/A   Unknown
10:34 AM 82.4 °F 83.4 °F 62.6 °F 51% 30.10 in 10.0 mi Calm Calm - N/A   Unknown
10:54 AM 82.4 °F 83.4 °F 62.6 °F 51% 30.10 in 10.0 mi ESE 4.6 mph - N/A   Unknown
11:14 AM 82.4 °F 83.4 °F 62.6 °F 51% 30.10 in 10.0 mi East 3.5 mph - N/A   Unknown
11:34 AM 84.2 °F 85.0 °F 62.6 °F 48% 30.10 in 10.0 mi ESE 4.6 mph - N/A   Unknown
11:54 AM 84.2 °F 85.0 °F 62.6 °F 48% 30.10 in 10.0 mi NE 5.8 mph - N/A   Unknown
12:14 PM 82.4 °F 83.4 °F 62.6 °F 51% 30.09 in 10.0 mi NW 3.5 mph - N/A   Unknown
12:34 PM 82.4 °F 83.4 °F 62.6 °F 51% 30.09 in 10.0 mi Calm Calm - N/A   Unknown
12:54 PM 82.4 °F 83.4 °F 62.6 °F 51% 30.08 in 10.0 mi Calm Calm - N/A   Unknown
1:14 PM 84.2 °F 84.4 °F 60.8 °F 45% 30.07 in 10.0 mi ESE 5.8 mph - N/A   Unknown
1:37 PM 86.0 °F 86.6 °F 62.6 °F 45% 30.07 in 10.0 mi ESE 5.8 mph - N/A   Unknown
1:54 PM 86.0 °F 86.1 °F 60.8 °F 43% 30.06 in 10.0 mi ESE 5.8 mph - N/A   Unknown
2:14 PM 84.2 °F 84.4 °F 60.8 °F 45% 30.06 in 10.0 mi Calm Calm - N/A   Unknown
2:34 PM 84.2 °F 84.4 °F 60.8 °F 45% 30.06 in 10.0 mi Calm Calm - N/A   Unknown
2:57 PM 87.8 °F 87.6 °F 60.8 °F 40% 30.05 in 10.0 mi Calm Calm - N/A   Unknown
3:14 PM 84.2 °F 85.0 °F 62.6 °F 48% 30.04 in 10.0 mi Calm Calm - N/A   Unknown
3:34 PM 84.2 °F 84.4 °F 60.8 °F 45% 30.04 in 10.0 mi ENE 3.5 mph - N/A   Unknown
3:54 PM 87.8 °F 87.6 °F 60.8 °F 40% 30.04 in 10.0 mi Calm Calm - N/A   Unknown
4:14 PM 84.2 °F 84.4 °F 60.8 °F 45% 30.03 in 10.0 mi Calm Calm - N/A   Unknown
4:34 PM 87.8 °F 87.6 °F 60.8 °F 40% 30.03 in 10.0 mi East 4.6 mph - N/A   Unknown
4:54 PM 87.8 °F 88.5 °F 62.6 °F 43% 30.02 in 10.0 mi SE 5.8 mph - N/A   Unknown
5:14 PM 87.8 °F 87.6 °F 60.8 °F 40% 30.02 in 10.0 mi East 8.1 mph - N/A   Unknown
5:34 PM 84.2 °F 85.0 °F 62.6 °F 48% 30.02 in 10.0 mi ESE 3.5 mph - N/A   Unknown
5:54 PM 86.0 °F 86.6 °F 62.6 °F 45% 30.02 in 10.0 mi SE 4.6 mph - N/A   Unknown
6:14 PM 82.4 °F 83.4 °F 62.6 °F 51% 30.01 in 10.0 mi Calm Calm - N/A   Unknown
6:34 PM 84.2 °F 84.4 °F 60.8 °F 45% 30.01 in 10.0 mi East 5.8 mph - N/A   Unknown
6:54 PM 84.2 °F 85.0 °F 62.6 °F 48% 30.01 in 10.0 mi East 3.5 mph - N/A   Unknown
7:14 PM 82.4 °F 83.4 °F 62.6 °F 51% 30.01 in 10.0 mi Calm Calm - N/A   Unknown
7:34 PM 80.6 °F 82.3 °F 64.4 °F 58% 30.01 in 10.0 mi Calm Calm - N/A   Unknown
7:54 PM 78.8 °F - 64.4 °F 61% 30.01 in 10.0 mi Calm Calm - N/A   Unknown
8:14 PM 75.2 °F - 64.4 °F 69% 30.01 in 10.0 mi Calm Calm - N/A   Unknown
8:34 PM 75.2 °F - 66.2 °F 73% 30.01 in 10.0 mi Calm Calm - N/A   Unknown
8:54 PM 73.4 °F - 66.2 °F 78% 30.01 in 10.0 mi Calm Calm - N/A   Unknown
9:14 PM 73.4 °F - 66.2 °F 78% 30.02 in 10.0 mi Calm Calm - N/A   Unknown
9:34 PM 71.6 °F - 66.2 °F 83% 30.02 in 10.0 mi Calm Calm - N/A   Unknown
9:55 PM 71.6 °F - 66.2 °F 83% 30.02 in 10.0 mi Calm Calm - N/A   Unknown
10:14 PM 71.6 °F - 66.2 °F 83% 30.03 in 10.0 mi Calm Calm - N/A   Unknown
10:35 PM 69.8 °F - 66.2 °F 88% 30.03 in 10.0 mi Calm Calm - N/A   Unknown
10:54 PM 69.8 °F - 64.4 °F 83% 30.03 in 10.0 mi Calm Calm - N/A   Unknown
11:15 PM 68.0 °F - 64.4 °F 88% 30.03 in 10.0 mi Calm Calm - N/A   Unknown
11:34 PM 68.0 °F - 64.4 °F 88% 30.02 in 10.0 mi Calm Calm - N/A   Unknown
11:54 PM 68.0 °F - 64.4 °F 88% 30.03 in 10.0 mi Calm Calm - N/A   Unknown